Regional Weather Roundup
Issued by NWS

Home | Current Version | Previous Version | Graphics & Text | Print | Product List | Glossary On
Versions: 1 2 3 4 5 6 7 8 9 10 11 12 13 14 15 16 17 18 19 20 21 22 23 24 25 26 27 28 29 30 31 32 33 34 35 36 37 38 39 40 41 42 43 44 45 46 47 48 49 50
000
ASUS45 KSLC 211510
RWRUT

UTAH REGIONAL WEATHER ROUNDUP
NATIONAL WEATHER SERVICE SALT LAKE CITY UT
800 AM MST SAT JAN 21 2017

UTZ001>011-023>025-211600-

NORTHERN UTAH

CITY           SKY/WX    TMP DP  RH WIND       PRES   REMARKS
BRIGHAM CITY     N/A     32  30  93 N3        29.37R
HILL AFB       LGT SNOW  29  28  96 E6        29.35R FOG     WCI  23
LOGAN          LGT SNOW  25  24  96 CALM      29.37R FOG
OGDEN          LGT SNOW  31  31 100 CALM      29.36R VSB 3/4
SALT LAKE CITY SNOW      33  31  92 W8        29.37R VSB 1/2 WCI  26
TOOELE VALLEY  CLOUDY    32  32 100 CALM      29.39R
WENDOVER       CLOUDY    34  25  69 N8        29.40R WCI  27
HEBER CITY     SNOW      28  28 100 CALM      29.31R VSB 1/2
WEST JORDAN    CLOUDY    32  32 100 NW7       29.36R WCI  26

$$

UTZ011>015-024>027-211600-

CENTRAL/NORTHEAST UTAH

CITY           SKY/WX    TMP DP  RH WIND       PRES   REMARKS
PROVO AIRPORT  LGT SNOW  32  30  93 E3        29.35R VSB 3/4
MOAB/CANYONLAN LGT SNOW  33  33 100 SE5       29.32R FOG     WCI  29
DELTA          CLOUDY    30  30 100 NW7       29.40R VSB 1   WCI  23
PRICE          CLOUDY    30  30 100 CALM      29.31R
RICHFIELD      FOG       32  32 100 SW14      29.39R VSB 1/4 WCI  22
ROOSEVELT      CLOUDY    23  21  93 CALM      29.39S FOG
VERNAL         LGT SNOW  21  18  88 S3        29.36R FOG

$$

UTZ013>016-019>022-027-211600-

SOUTHERN UTAH

CITY           SKY/WX    TMP DP  RH WIND       PRES   REMARKS
BRYCE CANYON   CLOUDY    19  15  84 N3        29.36R
CEDAR CITY     CLOUDY    30  26  85 S9        29.42R WCI  22
MILFORD        LGT SNOW  31  30  96 S9        29.41R FOG     WCI  23
ST GEORGE      CLOUDY    41  34  75 SW9       29.51R
HANKSVILLE     CLOUDY    34  32  93 MISG      29.35R
KANAB          FOG       32  32 100 S12G20    29.49R VSB 3/4 WCI  23
BLANDING       CLOUDY    31  31 100 CALM      29.41R

$$

REGIONAL REPORTS     COLORADO/ARIZONA

CITY           SKY/WX    TMP DP  RH WIND       PRES   REMARKS
CRAIG, CO      CLOUDY    18  13  80 SW7       29.34S WCI   9
GRAND JUNCTION LGT SNOW  31  31 100 SE9       29.34R VSB 3/4 WCI  23
RIFLE, CO      CLOUDY    28  25  88 E3        29.35R
MONTROSE, CO   CLOUDY    30  23  75 NE6       29.36R WCI  24
CORTEZ, CO     NOT AVBL
COLORADO CITY  LGT SNOW  34  32  93 W13       29.49R WCI  25
PAGE, AZ       CLOUDY    38  29  70 SW5       29.40R WCI  34
GRAND CANYON   CLOUDY    25  24  96 SW15      29.47R WCI  13
KINGMAN, AZ    PTCLDY    37  28  70 SW20      29.57R WCI  27
FLAGSTAFF, AZ  SNOW      24  22  91 W8G20     29.49R VSB 1/4 WCI  15

$$

REGIONAL REPORTS    NEVADA/IDAHO/WYOMING

CITY           SKY/WX    TMP DP  RH WIND       PRES   REMARKS
LAS VEGAS, NV  PTCLDY    44  29  55 SW9       29.55R
ELY, NY        MOCLDY    22  18  85 W3        29.46R
ELKO, NV       CLOUDY    26  23  88 S5        29.46R WCI  20
POCATELLO, ID  LGT SNOW  27  26  96 SW8       29.39R WCI  19
BURLEY, ID     CLOUDY    33  28  81 W8        29.38R WCI  26
FORT BRIDGER,  LGT SNOW  15  15 100 W5        29.35S WCI   8
EVANSTON, WY   LGT SNOW  17  13  84 CALM      29.31R VSB 3/4
ROCK SPRINGS,  CLOUDY    12  10  92 NE6       29.32R WCI   3

$$



USA.gov is the U.S. government's official web portal to all federal, state and local government web resources and services.